Regional Weather Roundup
Issued by NWS

Home | Current Version | Previous Version | Graphics & Text | Print | Product List | Glossary On
Versions: 1 2 3 4 5 6 7 8 9 10 11 12 13 14 15 16 17 18 19 20 21 22 23 24 25 26 27 28 29 30 31 32 33 34 35 36 37 38 39 40 41 42 43 44 45 46 47 48 49 50
000
ASUS45 KABQ 290710
RWRNM
NEW MEXICO REGIONAL WEATHER ROUNDUP
NATIONAL WEATHER SERVICE ALBUQUERQUE NM
100 AM MDT FRI JUL 29 2016

NOTE: "FAIR" MEANS FEW OR NO CLOUDS BELOW 12,000 FEET AGL WITH NO
       SIGNIFICANT WEATHER OR OBSTRUCTIONS TO VISION.

      THIS PRODUCT IS RELEASED AS TWO VERSIONS.  ONE VERSION NEAR
      THE TOP OF THE HOUR CONTAINING PRELIMINARY DATA FROM ALBUQUERQUE
      AND OTHER STATIONS.  A FINAL VERSION WITH ADDITIONAL DATA IS
      ISSUED ABOUT 10 MINUTES AFTER THE HOUR.

NMZ501-503-504-510>518-290800-
NORTHWEST PLATEAU/NORTHCENTRAL MOUNTAINS

CITY           SKY/WX    TMP DP  RH WIND       PRES   REMARKS
FARMINGTON     FAIR      83  38  20 S8        30.10F
LOS ALAMOS     FAIR      71  37  28 SW6       30.32R
SANTA FE       FAIR      75  44  33 SE16      30.23R
TAOS           FAIR      70  37  30 SE14      30.29F
ANGEL FIRE     FAIR      49  42  79 CALM      30.44S

$$
NMZ402-403-502-505>509-290800-
WESTCENTRAL MOUNTAINS/SOUTHWEST MOUNTAINS

CITY           SKY/WX    TMP DP  RH WIND       PRES   REMARKS
GALLUP         FAIR      66  37  34 NE3       30.25R
GRANTS         FAIR      59  39  47 NW6       30.26S
SILVER CITY    FAIR      70  56  60 E5        30.18S

$$
NMZ407-409-411-412-290800-
SOUTHERN DESERTS

CITY           SKY/WX    TMP DP  RH WIND       PRES   REMARKS
LORDSBURG      FAIR      79  50  36 SE7       30.07S
DEMING         FAIR      79  51  37 VRB3      30.09
LAS CRUCES     FAIR      79  51  37 SE6       30.12R
HOLLOMAN AFB   FAIR      81  54  38 S15       30.07R
ALAMOGORDO     FAIR      82  54  36 S6G23     30.10R
T OR C         FAIR      82  49  31 SW7       30.12R

$$
NMZ519>523-290800-
CENTRAL VALLEYS/CENTRAL HIGHLANDS

CITY           SKY/WX    TMP DP  RH WIND       PRES   REMARKS
ALBUQUERQUE    FAIR      78  46  32 SE8       30.14R
DOUBLE EAGLE   FAIR      74  46  37 S8        30.19R
MORIARTY ARPT  FAIR      66  47  50 S3        30.26R
CLINES CORNERS FAIR      64  47  53 S9        30.32R
BELEN          FAIR      76  42  29 SE8       30.14R
SOCORRO        FAIR      76  44  31 S7        30.12R

$$
NMZ524>526-539-540-290800-
SOUTHCENTRAL MOUNTAINS

CITY           SKY/WX    TMP DP  RH WIND       PRES   REMARKS
RUIDOSO          N/A     64  46  52 CALM      30.34S

$$
NMZ527>531-290800-
NORTHEAST HIGHLANDS/NORTHEAST PLAINS

CITY           SKY/WX    TMP DP  RH WIND       PRES   REMARKS
LAS VEGAS      FAIR      64  45  49 CALM      30.31S
RATON          FAIR      68  48  48 CALM      30.26R
CLAYTON        CLOUDY    67  61  81 N6        30.20S

$$
NMZ532>537-290800-
EASTCENTRAL PLAINS

CITY           SKY/WX    TMP DP  RH WIND       PRES   REMARKS
TUCUMCARI      FAIR      79  53  40 S10       30.07R
CANNON AFB     FAIR      72  60  65 SW7       30.12S
CLOVIS AIRPORT FAIR      72  55  56 S8        30.12S

$$
NMZ028-029-538-290800-
SOUTHEAST PLAINS

CITY           SKY/WX    TMP DP  RH WIND       PRES   REMARKS
ROSWELL        FAIR      75  57  53 SW7       30.07S
ARTESIA        FAIR      77  57  50 S8        30.08S
CARLSBAD       FAIR      79  60  52 S8        30.07R
HOBBS          FAIR      73  63  68 S9        30.10F


$$




USA.gov is the U.S. government's official web portal to all federal, state and local government web resources and services.